Weather History for Steamboat Springs, CO

Change the Weather History Date:

Monday, September 10, 2012

  Actual Average Record
Temperature  
Mean Temperature 60 °F -  
Max Temperature 81 °F 75 °F 86 °F (1959)
Min Temperature 40 °F 37 °F 15 °F (1962)
Degree Days  
Heating Degree Days 4    
Growing Degree Days 10 (Base 50)    
Moisture  
Dew Point 25 °F    
Average Humidity 29    
Maximum Humidity 58    
Minimum Humidity 9    
Precipitation  
Precipitation 0.00 in - - ()
Sea Level Pressure  
Sea Level Pressure 30.20 in    
Wind  
Wind Speed 2 mph (SW)    
Max Wind Speed 13 mph    
Max Gust Speed 20 mph    
Visibility 10 miles    
Events      
Averages and records for this station are not official NWS values.
T = Trace of Precipitation, MM = Missing Value Source: NWS Daily Summary

Daily Weather History Graph

Daily Weather History Graph

Search for Another Location

Airport:

Trip Planner

Search our weather history database for the weather conditions in past years. The results will help you decide how hot, cold, wet, or windy it might be!

Date:

Astronomy

Sep. 10, 2012 Rise Set
Actual Time 6:43 AM MDT 7:23 PM MDT
Civil Twilight 6:16 AM MDT 7:51 PM MDT
Nautical Twilight 5:43 AM MDT 8:23 PM MDT
Astronomical Twilight 5:10 AM MDT 8:57 PM MDT
Moon 1:06 AM MDT (9/10) 3:56 PM MDT (9/10)
Length of Visible Light 13h 34m
Length of Day
12h 39m
Waning Crescent, 29% of the Moon is Illuminated
Sep 10
Waning Crescent
Sep 15
New
Sep 22
First Quarter
Sep 29
Full
Oct 8
Last Quarter

Hourly Weather History & Observations

Time (MDT) Temp. Windchill Dew Point Humidity Pressure Visibility Wind Dir Wind Speed Gust Speed Precip Events Conditions
12:13 AM 52.0 °F - 24.6 °F 35% 30.24 in 10.0 mi Calm Calm - N/A   Clear
12:33 AM 51.3 °F - 24.6 °F 35% 30.25 in 10.0 mi Calm Calm - N/A   Clear
12:53 AM 51.6 °F - 24.6 °F 35% 30.25 in 10.0 mi Calm Calm - N/A   Clear
1:13 AM 51.1 °F - 24.4 °F 35% 30.26 in 10.0 mi Calm Calm - N/A   Clear
1:33 AM 50.9 °F - 24.4 °F 36% 30.25 in 10.0 mi Calm Calm - N/A   Clear
1:53 AM 50.4 °F - 25.0 °F 37% 30.26 in 10.0 mi Calm Calm - N/A   Clear
2:13 AM 49.3 °F - 24.8 °F 38% 30.26 in 10.0 mi Calm Calm - N/A   Clear
2:33 AM 48.7 °F - 24.3 °F 38% 30.25 in 10.0 mi Calm Calm - N/A   Clear
2:53 AM 45.0 °F 43.5 °F 25.2 °F 46% 30.26 in 10.0 mi West 3.5 mph - N/A   Clear
3:13 AM 45.7 °F - 25.3 °F 45% 30.26 in 10.0 mi Calm Calm - N/A   Clear
3:33 AM 44.8 °F - 25.2 °F 46% 30.26 in 10.0 mi Calm Calm - N/A   Clear
3:53 AM 45.0 °F - 25.5 °F 47% 30.26 in 10.0 mi Calm Calm - N/A   Clear
4:13 AM 44.2 °F - 27.1 °F 51% 30.26 in 10.0 mi Calm Calm - N/A   Clear
4:33 AM 43.7 °F - 26.6 °F 51% 30.26 in 10.0 mi Calm Calm - N/A   Clear
4:53 AM 44.6 °F - 26.2 °F 49% 30.26 in 10.0 mi Calm Calm - N/A   Clear
5:13 AM 43.0 °F - 26.4 °F 52% 30.26 in 10.0 mi Calm Calm - N/A   Clear
5:33 AM 43.9 °F - 25.9 °F 49% 30.26 in 10.0 mi Calm Calm - N/A   Clear
5:53 AM 43.0 °F - 27.0 °F 53% 30.26 in 10.0 mi Calm Calm - N/A   Clear
6:13 AM 42.6 °F - 27.1 °F 54% 30.26 in 10.0 mi Calm Calm - N/A   Clear
6:33 AM 43.0 °F - 26.4 °F 52% 30.26 in 10.0 mi Calm Calm - N/A   Clear
6:53 AM 42.1 °F - 26.4 °F 54% 30.26 in 10.0 mi Calm Calm - N/A   Clear
7:13 AM 40.3 °F - 26.6 °F 58% 30.26 in 10.0 mi Calm Calm - N/A   Clear
7:33 AM 44.2 °F - 26.8 °F 50% 30.27 in 10.0 mi Calm Calm - N/A   Clear
7:53 AM 43.7 °F - 27.0 °F 52% 30.27 in 10.0 mi Calm Calm - N/A   Clear
8:13 AM 46.9 °F - 26.8 °F 45% 30.27 in 10.0 mi Calm Calm - N/A   Clear
8:33 AM 50.0 °F - 26.8 °F 41% 30.26 in 10.0 mi Calm Calm - N/A   Clear
8:53 AM 52.0 °F - 26.6 °F 37% 30.26 in 10.0 mi Calm Calm - N/A   Clear
9:13 AM 55.2 °F - 26.8 °F 34% 30.26 in 10.0 mi Calm Calm - N/A   Clear
9:33 AM 58.8 °F - 26.1 °F 29% 30.26 in 10.0 mi Calm Calm - N/A   Clear
9:53 AM 61.3 °F - 26.1 °F 26% 30.26 in 10.0 mi Calm Calm - N/A   Clear
10:13 AM 64.6 °F - 26.8 °F 24% 30.24 in 10.0 mi Calm Calm - N/A   Clear
10:33 AM 68.5 °F - 27.5 °F 22% 30.24 in 10.0 mi Calm Calm - N/A   Clear
10:53 AM 72.1 °F - 27.1 °F 19% 30.24 in 10.0 mi Calm Calm - N/A   Clear
11:13 AM 73.6 °F - 27.3 °F 18% 30.23 in 10.0 mi Calm Calm - N/A   Clear
11:33 AM 74.7 °F - 27.1 °F 17% 30.23 in 10.0 mi Calm Calm - N/A   Clear
11:53 AM 75.2 °F - 26.8 °F 17% 30.22 in 10.0 mi Calm Calm - N/A   Clear
12:13 PM 77.0 °F - 25.9 °F 15% 30.21 in 10.0 mi SW 9.2 mph - N/A   Clear
12:33 PM 78.1 °F - 24.3 °F 14% 30.20 in 10.0 mi South 5.8 mph - N/A   Clear
12:53 PM 79.0 °F - 22.6 °F 12% 30.19 in 10.0 mi South 6.9 mph - N/A   Clear
1:13 PM 79.7 °F - 21.2 °F 11% 30.18 in 10.0 mi South 3.5 mph - N/A   Clear
1:33 PM 80.2 °F - 18.0 °F 10% 30.17 in 10.0 mi SSW 6.9 mph 16.1 mph N/A   Scattered Clouds
1:53 PM 81.7 °F - 17.1 °F 9% 30.16 in 10.0 mi SW 10.4 mph 16.1 mph N/A   Scattered Clouds
2:13 PM 80.2 °F - 16.9 °F 9% 30.16 in 10.0 mi SW 8.1 mph - N/A   Clear
2:33 PM 80.2 °F - 16.9 °F 9% 30.15 in 10.0 mi SW 6.9 mph - N/A   Scattered Clouds
2:53 PM 81.3 °F - 16.5 °F 9% 30.14 in 10.0 mi SSW 9.2 mph - N/A   Scattered Clouds
3:13 PM 81.5 °F - 16.2 °F 9% 30.13 in 10.0 mi SSW 8.1 mph 17.3 mph N/A   Clear
3:33 PM 81.0 °F - 16.2 °F 9% 30.13 in 10.0 mi WSW 11.5 mph - N/A   Clear
3:53 PM 80.4 °F - 16.2 °F 9% 30.12 in 10.0 mi WSW 8.1 mph 17.3 mph N/A   Scattered Clouds
4:13 PM 79.3 °F - 17.2 °F 10% 30.12 in 10.0 mi West 12.7 mph - N/A   Scattered Clouds
4:33 PM 78.8 °F - 18.5 °F 10% 30.12 in 10.0 mi WSW 11.5 mph - N/A   Clear
4:53 PM 77.9 °F - 19.9 °F 11% 30.12 in 10.0 mi West 11.5 mph 19.6 mph N/A   Scattered Clouds
5:13 PM 77.9 °F - 20.1 °F 12% 30.12 in 10.0 mi West 9.2 mph - N/A   Mostly Cloudy
5:33 PM 77.4 °F - 20.7 °F 12% 30.12 in 10.0 mi West 12.7 mph 18.4 mph N/A   Scattered Clouds
5:53 PM 77.4 °F - 21.7 °F 13% 30.12 in 10.0 mi West 10.4 mph - N/A   Scattered Clouds
6:13 PM 77.7 °F - 21.7 °F 12% 30.12 in 10.0 mi WSW 11.5 mph - N/A   Scattered Clouds
6:33 PM 76.1 °F - 23.0 °F 14% 30.12 in 10.0 mi WSW 9.2 mph - N/A   Mostly Cloudy
6:53 PM 75.2 °F - 24.3 °F 15% 30.12 in 10.0 mi WSW 5.8 mph - N/A   Mostly Cloudy
7:13 PM 73.8 °F - 25.5 °F 17% 30.11 in 10.0 mi West 4.6 mph - N/A   Scattered Clouds
7:33 PM 72.3 °F - 26.8 °F 18% 30.12 in 10.0 mi NW 4.6 mph - N/A   Clear
7:53 PM 69.6 °F - 28.8 °F 22% 30.12 in 10.0 mi Calm Calm - N/A   Clear
8:13 PM 68.4 °F - 29.7 °F 24% 30.12 in 10.0 mi NW 3.5 mph - N/A   Clear
8:33 PM 66.7 °F - 29.7 °F 25% 30.13 in 10.0 mi Calm Calm - N/A   Clear
8:53 PM 66.4 °F - 30.0 °F 26% 30.14 in 10.0 mi SE 5.8 mph - N/A   Clear
9:13 PM 66.0 °F - 30.0 °F 26% 30.15 in 10.0 mi Calm Calm - N/A   Clear
9:33 PM 62.1 °F - 31.1 °F 31% 30.15 in 10.0 mi East 3.5 mph - N/A   Clear
10:13 PM 60.6 °F - 31.5 °F 33% 30.15 in 10.0 mi SE 5.8 mph - N/A   Clear
10:33 PM 59.0 °F - 32.0 °F 36% 30.15 in 10.0 mi Calm Calm - N/A   Clear
10:53 PM 59.2 °F - 32.5 °F 37% 30.16 in 10.0 mi Calm Calm - N/A   Clear
11:13 PM 58.1 °F - 33.3 °F 39% 30.15 in 10.0 mi Calm Calm - N/A   Clear
11:33 PM 56.1 °F - 33.3 °F 42% 30.15 in 10.0 mi SE 3.5 mph - N/A   Clear
11:53 PM 55.9 °F - 33.1 °F 42% 30.15 in 10.0 mi North 3.5 mph - N/A   Clear